Time,TemperatureF,DewpointF,PressureIn,WindDirection,WindDirectionDegrees,WindSpeedMPH,WindSpeedGustMPH,Humidity,HourlyPrecipIn,Conditions,Clouds,dailyrainin,SolarRadiationWatts/m^2,SoftwareType,DateUTC
2013-04-16 00:00:00,57.1,48.5,30.23,SSW,205,8.0,10.0,73,0.00,,,0.00,0.00,VWS V14.01,2013-04-16 04:00:00,
2013-04-16 00:05:00,57.1,48.5,30.23,South,172,2.0,2.0,73,0.00,,,0.00,0.00,VWS V14.01,2013-04-16 04:05:00,
2013-04-16 00:10:00,57.1,48.5,30.23,SSW,196,3.0,8.0,73,0.00,,,0.00,0.00,VWS V14.01,2013-04-16 04:10:00,
2013-04-16 00:15:00,57.0,48.4,30.23,South,188,1.0,4.0,73,0.00,,,0.00,0.00,VWS V14.01,2013-04-16 04:15:00,
2013-04-16 00:21:00,57.0,48.8,30.22,SSW,202,9.0,9.0,74,0.00,,,0.00,0.00,VWS V14.01,2013-04-16 04:21:00,
2013-04-16 00:26:00,57.0,48.8,30.23,SSE,168,3.0,3.0,74,0.00,,,0.00,0.00,VWS V14.01,2013-04-16 04:26:00,
2013-04-16 00:31:00,56.9,48.3,30.23,South,172,4.0,9.0,73,0.00,,,0.00,0.00,VWS V14.01,2013-04-16 04:31:00,
2013-04-16 00:36:00,56.9,48.7,30.23,South,179,0.0,4.0,74,0.00,,,0.00,0.00,VWS V14.01,2013-04-16 04:36:00,
2013-04-16 00:41:00,56.9,48.7,30.23,South,182,4.0,9.0,74,0.00,,,0.00,0.00,VWS V14.01,2013-04-16 04:41:00,
2013-04-16 00:46:00,56.8,48.6,30.23,SSW,194,3.0,7.0,74,0.00,,,0.00,0.00,VWS V14.01,2013-04-16 04:46:00,
2013-04-16 00:52:00,56.8,48.6,30.23,SSE,168,1.0,5.0,74,0.00,,,0.00,0.00,VWS V14.01,2013-04-16 04:52:00,
2013-04-16 00:57:00,56.7,48.5,30.22,South,184,3.0,9.0,74,0.00,,,0.00,0.00,VWS V14.01,2013-04-16 04:57:00,
2013-04-16 01:02:00,56.7,48.9,30.22,SSW,194,7.0,9.0,75,0.00,,,0.00,0.00,VWS V14.01,2013-04-16 05:02:00,
2013-04-16 01:07:00,56.6,48.8,30.22,South,182,0.0,8.0,75,0.00,,,0.00,0.00,VWS V14.01,2013-04-16 05:07:00,
2013-04-16 01:12:00,56.5,49.0,30.22,SSE,164,0.0,6.0,76,0.00,,,0.00,0.00,VWS V14.01,2013-04-16 05:12:00,
2013-04-16 01:17:00,56.4,49.3,30.22,SSW,202,1.0,4.0,77,0.00,,,0.00,0.00,VWS V14.01,2013-04-16 05:17:00,
2013-04-16 01:22:00,56.3,49.2,30.22,SSE,161,3.0,10.0,77,0.00,,,0.00,0.00,VWS V14.01,2013-04-16 05:22:00,
2013-04-16 01:27:00,56.2,49.4,30.22,South,173,1.0,5.0,78,0.00,,,0.00,0.00,VWS V14.01,2013-04-16 05:27:00,
2013-04-16 01:32:00,56.0,49.2,30.22,South,183,1.0,5.0,78,0.00,,,0.00,0.00,VWS V14.01,2013-04-16 05:32:00,
2013-04-16 01:37:00,56.0,49.2,30.22,South,174,0.0,5.0,78,0.00,,,0.00,0.00,VWS V14.01,2013-04-16 05:37:00,
2013-04-16 01:42:00,55.9,49.2,30.22,South,188,0.0,5.0,78,0.00,,,0.00,0.00,VWS V14.01,2013-04-16 05:42:00,
2013-04-16 01:47:00,55.8,49.4,30.22,SSW,198,0.0,3.0,79,0.00,,,0.00,0.00,VWS V14.01,2013-04-16 05:47:00,
2013-04-16 01:52:00,55.8,49.4,30.22,SSW,198,0.0,2.0,79,0.00,,,0.00,0.00,VWS V14.01,2013-04-16 05:52:00,
2013-04-16 01:57:00,55.7,49.3,30.21,South,173,2.0,2.0,79,0.00,,,0.00,0.00,VWS V14.01,2013-04-16 05:57:00,
2013-04-16 02:02:00,55.6,49.2,30.21,SSE,165,1.0,6.0,79,0.00,,,0.00,0.00,VWS V14.01,2013-04-16 06:02:00,
2013-04-16 02:08:00,55.6,49.2,30.21,South,181,3.0,5.0,79,0.00,,,0.00,0.00,VWS V14.01,2013-04-16 06:08:00,
2013-04-16 02:13:00,55.5,49.1,30.21,South,173,2.0,5.0,79,0.00,,,0.00,0.00,VWS V14.01,2013-04-16 06:13:00,
2013-04-16 02:18:00,55.5,49.1,30.21,SE,145,3.0,7.0,79,0.00,,,0.00,0.00,VWS V14.01,2013-04-16 06:18:00,
2013-04-16 02:23:00,55.5,49.1,30.20,South,182,3.0,7.0,79,0.00,,,0.00,0.00,VWS V14.01,2013-04-16 06:23:00,
2013-04-16 02:28:00,55.6,49.2,30.20,SSE,167,0.0,4.0,79,0.00,,,0.00,0.00,VWS V14.01,2013-04-16 06:28:00,
2013-04-16 02:33:00,55.6,49.2,30.20,South,178,3.0,7.0,79,0.00,,,0.00,0.00,VWS V14.01,2013-04-16 06:33:00,
2013-04-16 02:38:00,55.6,49.5,30.20,South,183,0.0,2.0,80,0.00,,,0.00,0.00,VWS V14.01,2013-04-16 06:38:00,
2013-04-16 02:43:00,55.7,49.6,30.20,SSW,192,0.0,5.0,80,0.00,,,0.00,0.00,VWS V14.01,2013-04-16 06:43:00,
2013-04-16 02:48:00,55.7,49.6,30.20,South,173,4.0,6.0,80,0.00,,,0.00,0.00,VWS V14.01,2013-04-16 06:48:00,
2013-04-16 02:53:00,55.7,49.6,30.20,South,187,3.0,4.0,80,0.00,,,0.00,0.00,VWS V14.01,2013-04-16 06:53:00,
2013-04-16 02:58:00,55.7,49.6,30.20,SSW,202,0.0,3.0,80,0.00,,,0.00,0.00,VWS V14.01,2013-04-16 06:58:00,
2013-04-16 03:03:00,55.7,49.6,30.20,SSE,167,0.0,3.0,80,0.00,,,0.00,0.00,VWS V14.01,2013-04-16 07:03:00,
2013-04-16 03:08:00,55.7,49.6,30.20,South,183,3.0,5.0,80,0.00,,,0.00,0.00,VWS V14.01,2013-04-16 07:08:00,
2013-04-16 03:13:00,55.7,49.6,30.20,SSE,163,2.0,6.0,80,0.00,,,0.00,0.00,VWS V14.01,2013-04-16 07:13:00,
2013-04-16 03:18:00,55.7,50.0,30.20,South,175,2.0,8.0,81,0.00,,,0.00,0.00,VWS V14.01,2013-04-16 07:18:00,
2013-04-16 03:23:00,55.7,50.0,30.20,South,175,2.0,5.0,81,0.00,,,0.00,0.00,VWS V14.01,2013-04-16 07:23:00,
2013-04-16 03:28:00,55.7,50.0,30.20,SSE,159,2.0,5.0,81,0.00,,,0.00,0.00,VWS V14.01,2013-04-16 07:28:00,
2013-04-16 03:33:00,55.7,50.0,30.20,South,179,0.0,5.0,81,0.00,,,0.00,0.00,VWS V14.01,2013-04-16 07:33:00,
2013-04-16 03:38:00,55.7,50.0,30.19,South,169,1.0,6.0,81,0.00,,,0.00,0.00,VWS V14.01,2013-04-16 07:38:00,
2013-04-16 03:43:00,55.7,50.0,30.19,South,182,3.0,6.0,81,0.00,,,0.00,0.00,VWS V14.01,2013-04-16 07:43:00,
2013-04-16 03:49:00,55.6,50.2,30.19,South,183,0.0,6.0,82,0.00,,,0.00,0.00,VWS V14.01,2013-04-16 07:49:00,
2013-04-16 03:54:00,55.6,50.2,30.19,South,175,1.0,6.0,82,0.00,,,0.00,0.00,VWS V14.01,2013-04-16 07:54:00,
2013-04-16 03:59:00,55.6,50.2,30.19,South,190,0.0,6.0,82,0.00,,,0.00,0.00,VWS V14.01,2013-04-16 07:59:00,
2013-04-16 04:04:00,55.5,50.1,30.19,South,190,0.0,6.0,82,0.00,,,0.00,0.00,VWS V14.01,2013-04-16 08:04:00,
2013-04-16 04:09:00,55.5,50.1,30.19,South,182,4.0,7.0,82,0.00,,,0.00,0.00,VWS V14.01,2013-04-16 08:09:00,
2013-04-16 04:14:00,55.5,50.1,30.19,South,173,0.0,7.0,82,0.00,,,0.00,0.00,VWS V14.01,2013-04-16 08:14:00,
2013-04-16 04:19:00,55.6,50.5,30.19,SSE,159,1.0,7.0,83,0.00,,,0.00,0.00,VWS V14.01,2013-04-16 08:19:00,
2013-04-16 04:24:00,55.6,50.5,30.19,SSE,162,0.0,7.0,83,0.00,,,0.00,0.00,VWS V14.01,2013-04-16 08:24:00,
2013-04-16 04:29:00,55.7,50.6,30.19,South,188,6.0,8.0,83,0.00,,,0.00,0.00,VWS V14.01,2013-04-16 08:29:00,
2013-04-16 04:34:00,55.7,50.6,30.19,South,178,0.0,6.0,83,0.00,,,0.00,0.00,VWS V14.01,2013-04-16 08:34:00,
2013-04-16 04:39:00,55.7,51.0,30.19,SSE,157,1.0,8.0,84,0.00,,,0.00,0.00,VWS V14.01,2013-04-16 08:39:00,
2013-04-16 04:44:00,55.7,51.0,30.19,SSE,161,4.0,7.0,84,0.00,,,0.00,0.00,VWS V14.01,2013-04-16 08:44:00,
2013-04-16 04:50:00,55.8,51.0,30.19,South,180,0.0,8.0,84,0.00,,,0.00,0.00,VWS V14.01,2013-04-16 08:50:00,
2013-04-16 04:55:00,55.9,51.1,30.19,SSE,165,2.0,8.0,84,0.00,,,0.00,0.00,VWS V14.01,2013-04-16 08:55:00,
2013-04-16 05:00:00,55.9,51.1,30.19,SSE,157,4.0,7.0,84,0.00,,,0.00,0.00,VWS V14.01,2013-04-16 09:00:00,
2013-04-16 05:05:00,55.9,51.5,30.20,SSW,195,7.0,7.0,85,0.00,,,0.00,0.00,VWS V14.01,2013-04-16 09:05:00,
2013-04-16 05:10:00,55.9,51.5,30.20,South,182,1.0,5.0,85,0.00,,,0.00,0.00,VWS V14.01,2013-04-16 09:10:00,
2013-04-16 05:15:00,55.8,51.4,30.19,SSE,165,4.0,8.0,85,0.00,,,0.00,0.00,VWS V14.01,2013-04-16 09:15:00,
2013-04-16 05:20:00,55.8,51.4,30.20,South,172,1.0,7.0,85,0.00,,,0.00,0.00,VWS V14.01,2013-04-16 09:20:00,
2013-04-16 05:25:00,55.8,51.4,30.19,South,178,2.0,7.0,85,0.00,,,0.00,0.00,VWS V14.01,2013-04-16 09:25:00,
2013-04-16 05:30:00,55.8,51.4,30.19,South,182,2.0,6.0,85,0.00,,,0.00,0.00,VWS V14.01,2013-04-16 09:30:00,
2013-04-16 05:35:00,55.7,51.6,30.20,South,180,4.0,7.0,86,0.00,,,0.00,0.00,VWS V14.01,2013-04-16 09:35:00,
2013-04-16 05:40:00,55.7,51.3,30.19,South,178,4.0,5.0,85,0.00,,,0.00,0.00,VWS V14.01,2013-04-16 09:40:00,
2013-04-16 05:45:00,55.7,51.6,30.20,SSW,192,0.0,9.0,86,0.00,,,0.00,0.00,VWS V14.01,2013-04-16 09:45:00,
2013-04-16 05:50:00,55.7,51.6,30.20,South,178,0.0,2.0,86,0.00,,,0.00,0.00,VWS V14.01,2013-04-16 09:50:00,
2013-04-16 05:55:00,55.7,51.6,30.20,South,169,3.0,3.0,86,0.00,,,0.00,0.00,VWS V14.01,2013-04-16 09:55:00,
2013-04-16 06:01:00,55.8,51.7,30.20,South,183,0.0,3.0,86,0.00,,,0.00,0.00,VWS V14.01,2013-04-16 10:01:00,
2013-04-16 06:06:00,55.8,51.7,30.20,South,176,1.0,2.0,86,0.00,,,0.00,0.00,VWS V14.01,2013-04-16 10:06:00,
2013-04-16 06:11:00,55.8,51.7,30.21,South,182,0.0,2.0,86,0.00,,,0.00,0.00,VWS V14.01,2013-04-16 10:11:00,
2013-04-16 06:16:00,55.8,52.0,30.21,South,175,3.0,3.0,87,0.00,,,0.00,0.00,VWS V14.01,2013-04-16 10:16:00,
2013-04-16 06:21:00,55.8,52.0,30.21,SE,145,0.0,3.0,87,0.00,,,0.00,0.00,VWS V14.01,2013-04-16 10:21:00,
2013-04-16 06:26:00,55.8,52.0,30.20,South,189,2.0,6.0,87,0.00,,,0.00,0.00,VWS V14.01,2013-04-16 10:26:00,
2013-04-16 06:31:00,55.7,51.9,30.21,South,182,4.0,4.0,87,0.00,,,0.00,0.00,VWS V14.01,2013-04-16 10:31:00,
2013-04-16 06:36:00,55.7,51.9,30.21,SSE,160,0.0,1.0,87,0.00,,,0.00,0.00,VWS V14.01,2013-04-16 10:36:00,
2013-04-16 06:41:00,55.7,51.9,30.21,South,180,5.0,6.0,87,0.00,,,0.00,0.00,VWS V14.01,2013-04-16 10:41:00,
2013-04-16 06:46:00,55.7,51.9,30.21,South,176,4.0,6.0,87,0.00,,,0.00,0.00,VWS V14.01,2013-04-16 10:46:00,
2013-04-16 06:51:00,55.7,51.9,30.21,South,171,1.0,4.0,87,0.00,,,0.00,7.00,VWS V14.01,2013-04-16 10:51:00,
2013-04-16 06:57:00,55.7,52.2,30.21,South,176,0.0,5.0,88,0.00,,,0.00,9.00,VWS V14.01,2013-04-16 10:57:00,
2013-04-16 07:01:00,55.7,52.2,30.22,South,172,1.0,6.0,88,0.00,,,0.00,9.00,VWS V14.01,2013-04-16 11:01:00,
2013-04-16 07:07:00,55.7,52.2,30.21,South,173,0.0,3.0,88,0.00,,,0.00,11.00,VWS V14.01,2013-04-16 11:07:00,
2013-04-16 07:12:00,55.7,52.2,30.22,SSE,160,1.0,5.0,88,0.00,,,0.00,12.00,VWS V14.01,2013-04-16 11:12:00,
2013-04-16 07:17:00,55.7,52.2,30.22,SSW,200,3.0,4.0,88,0.00,,,0.00,14.00,VWS V14.01,2013-04-16 11:17:00,
2013-04-16 07:22:00,55.8,52.3,30.23,SSW,199,0.0,0.0,88,0.00,,,0.00,12.00,VWS V14.01,2013-04-16 11:22:00,
2013-04-16 07:27:00,55.8,52.3,30.23,SSW,203,1.0,1.0,88,0.00,,,0.00,16.00,VWS V14.01,2013-04-16 11:27:00,
2013-04-16 07:32:00,55.8,52.3,30.23,SW,217,5.0,6.0,88,0.00,,,0.00,16.00,VWS V14.01,2013-04-16 11:32:00,
2013-04-16 07:37:00,55.9,52.7,30.24,South,178,3.0,3.0,89,0.00,,,0.00,18.00,VWS V14.01,2013-04-16 11:37:00,
2013-04-16 07:42:00,56.0,52.8,30.24,South,181,1.0,3.0,89,0.00,,,0.00,18.00,VWS V14.01,2013-04-16 11:42:00,
2013-04-16 07:48:00,56.1,52.9,30.24,SSE,167,1.0,2.0,89,0.00,,,0.00,26.00,VWS V14.01,2013-04-16 11:48:00,
2013-04-16 07:53:00,56.1,52.9,30.24,SSW,200,3.0,6.0,89,0.00,,,0.00,30.00,VWS V14.01,2013-04-16 11:53:00,
2013-04-16 07:58:00,56.2,53.0,30.24,South,184,0.0,4.0,89,0.00,,,0.00,37.00,VWS V14.01,2013-04-16 11:58:00,
2013-04-16 08:03:00,56.3,53.1,30.24,South,183,0.0,2.0,89,0.00,,,0.00,39.00,VWS V14.01,2013-04-16 12:03:00,
2013-04-16 08:08:00,56.3,53.1,30.24,South,184,3.0,3.0,89,0.00,,,0.00,51.00,VWS V14.01,2013-04-16 12:08:00,
2013-04-16 08:13:00,56.4,53.2,30.24,South,178,2.0,4.0,89,0.00,,,0.00,62.00,VWS V14.01,2013-04-16 12:13:00,
2013-04-16 08:18:00,56.5,53.3,30.24,South,171,1.0,5.0,89,0.00,,,0.00,60.00,VWS V14.01,2013-04-16 12:18:00,
2013-04-16 08:23:00,56.6,53.4,30.24,South,188,4.0,5.0,89,0.00,,,0.00,88.00,VWS V14.01,2013-04-16 12:23:00,
2013-04-16 08:28:00,56.7,53.5,30.24,South,183,7.0,7.0,89,0.00,,,0.00,83.00,VWS V14.01,2013-04-16 12:28:00,
2013-04-16 08:33:00,56.8,53.6,30.24,South,188,1.0,9.0,89,0.00,,,0.00,111.00,VWS V14.01,2013-04-16 12:33:00,
2013-04-16 08:38:00,57.0,53.8,30.24,South,175,4.0,7.0,89,0.00,,,0.00,128.00,VWS V14.01,2013-04-16 12:38:00,
2013-04-16 08:44:00,57.2,54.0,30.23,South,171,1.0,10.0,89,0.00,,,0.00,98.00,VWS V14.01,2013-04-16 12:44:00,
2013-04-16 08:49:00,57.2,54.0,30.23,South,175,5.0,11.0,89,0.00,,,0.00,100.00,VWS V14.01,2013-04-16 12:49:00,
2013-04-16 08:54:00,57.4,54.2,30.23,South,178,5.0,10.0,89,0.00,,,0.00,120.00,VWS V14.01,2013-04-16 12:54:00,
2013-04-16 08:59:00,57.5,54.3,30.23,South,173,5.0,8.0,89,0.00,,,0.00,125.00,VWS V14.01,2013-04-16 12:59:00,
2013-04-16 09:04:00,57.6,54.4,30.23,South,180,2.0,7.0,89,0.00,,,0.00,151.00,VWS V14.01,2013-04-16 13:04:00,
2013-04-16 09:09:00,57.8,54.6,30.23,SSW,194,7.0,10.0,89,0.00,,,0.00,158.00,VWS V14.01,2013-04-16 13:09:00,
2013-04-16 09:14:00,57.9,54.4,30.22,South,186,7.0,10.0,88,0.00,,,0.00,178.00,VWS V14.01,2013-04-16 13:14:00,
2013-04-16 09:19:00,58.1,54.9,30.22,South,172,4.0,9.0,89,0.00,,,0.00,172.00,VWS V14.01,2013-04-16 13:19:00,
2013-04-16 09:24:00,58.3,55.1,30.22,South,179,3.0,10.0,89,0.00,,,0.00,202.00,VWS V14.01,2013-04-16 13:24:00,
2013-04-16 09:29:00,58.5,55.0,30.22,South,173,13.0,14.0,88,0.00,,,0.00,214.00,VWS V14.01,2013-04-16 13:29:00,
2013-04-16 09:34:00,58.7,55.2,30.22,South,173,3.0,13.0,88,0.00,,,0.00,250.00,VWS V14.01,2013-04-16 13:34:00,
2013-04-16 09:39:00,59.0,55.5,30.22,South,180,4.0,14.0,88,0.00,,,0.00,265.00,VWS V14.01,2013-04-16 13:39:00,
2013-04-16 09:44:00,59.0,55.1,30.22,South,177,5.0,18.0,87,0.00,,,0.00,272.00,VWS V14.01,2013-04-16 13:44:00,
2013-04-16 09:50:00,59.3,55.4,30.22,South,171,5.0,15.0,87,0.00,,,0.00,278.00,VWS V14.01,2013-04-16 13:50:00,
2013-04-16 09:55:00,59.6,55.7,30.22,SSW,213,9.0,17.0,87,0.00,,,0.00,216.00,VWS V14.01,2013-04-16 13:55:00,
2013-04-16 10:00:00,59.8,55.9,30.22,SSW,203,9.0,12.0,87,0.00,,,0.00,230.00,VWS V14.01,2013-04-16 14:00:00,
2013-04-16 10:05:00,60.1,55.9,30.22,South,188,11.0,15.0,86,0.00,,,0.00,432.00,VWS V14.01,2013-04-16 14:05:00,
2013-04-16 10:10:00,60.4,56.5,30.22,SSE,157,5.0,12.0,87,0.00,,,0.00,345.00,VWS V14.01,2013-04-16 14:10:00,
2013-04-16 10:15:00,61.4,57.5,30.22,South,169,9.0,12.0,87,0.00,,,0.00,508.00,VWS V14.01,2013-04-16 14:15:00,
2013-04-16 10:20:00,61.9,57.0,30.21,SSW,209,5.0,10.0,84,0.00,,,0.00,432.00,VWS V14.01,2013-04-16 14:20:00,
2013-04-16 10:25:00,62.3,57.4,30.21,South,172,9.0,19.0,84,0.00,,,0.00,585.00,VWS V14.01,2013-04-16 14:25:00,
2013-04-16 10:30:00,62.6,57.4,30.21,SSW,192,6.0,14.0,83,0.00,,,0.00,517.00,VWS V14.01,2013-04-16 14:30:00,
2013-04-16 10:35:00,62.8,57.6,30.21,South,169,5.0,14.0,83,0.00,,,0.00,323.00,VWS V14.01,2013-04-16 14:35:00,
2013-04-16 10:40:00,62.9,57.3,30.21,South,184,5.0,11.0,82,0.00,,,0.00,563.00,VWS V14.01,2013-04-16 14:40:00,
2013-04-16 10:45:00,63.2,58.0,30.21,SSE,156,9.0,12.0,83,0.00,,,0.00,605.00,VWS V14.01,2013-04-16 14:45:00,
2013-04-16 10:50:00,63.8,58.2,30.21,SSW,209,9.0,16.0,82,0.00,,,0.00,714.00,VWS V14.01,2013-04-16 14:50:00,
2013-04-16 10:55:00,64.2,58.6,30.22,South,170,7.0,7.0,82,0.00,,,0.00,527.00,VWS V14.01,2013-04-16 14:55:00,
2013-04-16 11:00:00,64.3,58.0,30.21,SE,145,6.0,12.0,80,0.00,,,0.00,396.00,VWS V14.01,2013-04-16 15:00:00,
2013-04-16 11:05:00,64.4,58.1,30.21,South,184,8.0,12.0,80,0.00,,,0.00,425.00,VWS V14.01,2013-04-16 15:05:00,
2013-04-16 11:10:00,64.6,58.7,30.21,South,191,4.0,11.0,81,0.00,,,0.00,385.00,VWS V14.01,2013-04-16 15:10:00,
2013-04-16 11:15:00,64.5,57.8,30.21,SW,223,9.0,13.0,79,0.00,,,0.00,364.00,VWS V14.01,2013-04-16 15:15:00,
2013-04-16 11:20:00,64.4,58.1,30.21,South,173,7.0,15.0,80,0.00,,,0.00,373.00,VWS V14.01,2013-04-16 15:20:00,
2013-04-16 11:25:00,64.5,58.2,30.21,South,191,6.0,13.0,80,0.00,,,0.00,341.00,VWS V14.01,2013-04-16 15:25:00,
2013-04-16 11:30:00,64.7,58.4,30.21,SSW,193,12.0,16.0,80,0.00,,,0.00,415.00,VWS V14.01,2013-04-16 15:30:00,
2013-04-16 11:35:00,65.0,58.7,30.21,SSW,212,13.0,13.0,80,0.00,,,0.00,793.00,VWS V14.01,2013-04-16 15:35:00,
2013-04-16 11:40:00,65.3,58.3,30.20,South,182,6.0,8.0,78,0.00,,,0.00,366.00,VWS V14.01,2013-04-16 15:40:00,
2013-04-16 11:45:00,65.6,58.9,30.20,SSE,163,7.0,9.0,79,0.00,,,0.00,480.00,VWS V14.01,2013-04-16 15:45:00,
2013-04-16 11:51:00,65.7,58.7,30.20,South,184,3.0,4.0,78,0.00,,,0.00,394.00,VWS V14.01,2013-04-16 15:51:00,
2013-04-16 11:55:00,65.8,58.4,30.20,SSE,157,5.0,10.0,77,0.00,,,0.00,364.00,VWS V14.01,2013-04-16 15:55:00,
2013-04-16 12:01:00,65.8,58.4,30.20,SW,216,10.0,11.0,77,0.00,,,0.00,425.00,VWS V14.01,2013-04-16 16:01:00,
2013-04-16 12:06:00,66.1,59.0,30.19,SSW,197,7.0,10.0,78,0.00,,,0.00,381.00,VWS V14.01,2013-04-16 16:06:00,
2013-04-16 12:11:00,66.6,59.5,30.19,SSW,202,8.0,10.0,78,0.00,,,0.00,376.00,VWS V14.01,2013-04-16 16:11:00,
2013-04-16 12:17:00,67.7,59.9,30.19,SSE,166,11.0,14.0,76,0.00,,,0.00,417.00,VWS V14.01,2013-04-16 16:17:00,
2013-04-16 12:22:00,67.7,59.5,30.19,SSE,167,10.0,11.0,75,0.00,,,0.00,397.00,VWS V14.01,2013-04-16 16:22:00,
2013-04-16 12:27:00,67.5,58.9,30.19,SSW,196,8.0,12.0,74,0.00,,,0.00,422.00,VWS V14.01,2013-04-16 16:27:00,
2013-04-16 12:32:00,68.1,60.3,30.19,SSE,168,3.0,4.0,76,0.00,,,0.00,432.00,VWS V14.01,2013-04-16 16:32:00,
2013-04-16 12:37:00,69.0,60.4,30.18,SSE,148,9.0,10.0,74,0.00,,,0.00,362.00,VWS V14.01,2013-04-16 16:37:00,
2013-04-16 12:42:00,69.0,59.6,30.18,SSW,192,5.0,11.0,72,0.00,,,0.00,420.00,VWS V14.01,2013-04-16 16:42:00,
2013-04-16 12:47:00,69.1,60.1,30.18,SSE,153,4.0,10.0,73,0.00,,,0.00,912.00,VWS V14.01,2013-04-16 16:47:00,
2013-04-16 12:52:00,69.7,61.0,30.18,South,175,4.0,11.0,74,0.00,,,0.00,1041.00,VWS V14.01,2013-04-16 16:52:00,
2013-04-16 12:57:00,69.9,60.1,30.18,SSE,164,4.0,10.0,71,0.00,,,0.00,464.00,VWS V14.01,2013-04-16 16:57:00,
2013-04-16 13:02:00,69.8,60.0,30.18,South,172,5.0,15.0,71,0.00,,,0.00,418.00,VWS V14.01,2013-04-16 17:02:00,
2013-04-16 13:07:00,70.1,60.7,30.18,SSW,207,7.0,11.0,72,0.00,,,0.00,761.00,VWS V14.01,2013-04-16 17:07:00,
2013-04-16 13:12:00,70.5,60.7,30.18,South,175,4.0,14.0,71,0.00,,,0.00,831.00,VWS V14.01,2013-04-16 17:12:00,
2013-04-16 13:17:00,71.0,61.1,30.17,SSW,195,7.0,11.0,71,0.00,,,0.00,861.00,VWS V14.01,2013-04-16 17:17:00,
2013-04-16 13:22:00,71.3,61.0,30.17,SSW,198,9.0,10.0,70,0.00,,,0.00,863.00,VWS V14.01,2013-04-16 17:22:00,
2013-04-16 13:27:00,71.3,61.4,30.17,South,176,5.0,13.0,71,0.00,,,0.00,891.00,VWS V14.01,2013-04-16 17:27:00,
2013-04-16 13:32:00,71.6,61.3,30.16,SSE,153,2.0,13.0,70,0.00,,,0.00,863.00,VWS V14.01,2013-04-16 17:32:00,
2013-04-16 13:38:00,71.3,60.2,30.16,South,173,10.0,14.0,68,0.00,,,0.00,712.00,VWS V14.01,2013-04-16 17:38:00,
2013-04-16 13:43:00,70.8,60.1,30.16,South,183,12.0,12.0,69,0.00,,,0.00,886.00,VWS V14.01,2013-04-16 17:43:00,
2013-04-16 13:48:00,71.1,61.2,30.15,South,188,7.0,11.0,71,0.00,,,0.00,886.00,VWS V14.01,2013-04-16 17:48:00,
2013-04-16 13:53:00,71.9,60.8,30.15,SSW,205,6.0,17.0,68,0.00,,,0.00,875.00,VWS V14.01,2013-04-16 17:53:00,
2013-04-16 13:58:00,71.5,61.2,30.15,South,179,5.0,10.0,70,0.00,,,0.00,882.00,VWS V14.01,2013-04-16 17:58:00,
2013-04-16 14:03:00,71.9,61.2,30.15,South,180,13.0,13.0,69,0.00,,,0.00,830.00,VWS V14.01,2013-04-16 18:03:00,
2013-04-16 14:08:00,72.3,62.4,30.15,South,175,4.0,11.0,71,0.00,,,0.00,828.00,VWS V14.01,2013-04-16 18:08:00,
2013-04-16 14:13:00,72.9,61.3,30.15,South,172,8.0,14.0,67,0.00,,,0.00,860.00,VWS V14.01,2013-04-16 18:13:00,
2013-04-16 14:18:00,72.7,60.7,30.15,SSW,194,7.0,11.0,66,0.00,,,0.00,835.00,VWS V14.01,2013-04-16 18:18:00,
2013-04-16 14:23:00,72.6,61.0,30.15,SSW,209,11.0,14.0,67,0.00,,,0.00,847.00,VWS V14.01,2013-04-16 18:23:00,
2013-04-16 14:28:00,72.8,60.8,30.15,South,180,3.0,14.0,66,0.00,,,0.00,856.00,VWS V14.01,2013-04-16 18:28:00,
2013-04-16 14:34:00,72.9,61.3,30.15,SSW,198,9.0,14.0,67,0.00,,,0.00,842.00,VWS V14.01,2013-04-16 18:34:00,
2013-04-16 14:39:00,72.8,61.2,30.14,SW,215,9.0,12.0,67,0.00,,,0.00,847.00,VWS V14.01,2013-04-16 18:39:00,
2013-04-16 14:44:00,73.0,61.8,30.14,SSW,199,4.0,11.0,68,0.00,,,0.00,835.00,VWS V14.01,2013-04-16 18:44:00,
2013-04-16 14:49:00,73.3,61.7,30.14,South,173,6.0,14.0,67,0.00,,,0.00,810.00,VWS V14.01,2013-04-16 18:49:00,
2013-04-16 14:54:00,73.5,62.3,30.13,South,188,7.0,14.0,68,0.00,,,0.00,795.00,VWS V14.01,2013-04-16 18:54:00,
2013-04-16 14:59:00,73.8,62.6,30.13,South,180,4.0,12.0,68,0.00,,,0.00,777.00,VWS V14.01,2013-04-16 18:59:00,
2013-04-16 15:04:00,73.8,61.3,30.13,SSE,164,5.0,12.0,65,0.00,,,0.00,754.00,VWS V14.01,2013-04-16 19:04:00,
2013-04-16 15:09:00,73.8,61.3,30.12,South,181,1.0,12.0,65,0.00,,,0.00,744.00,VWS V14.01,2013-04-16 19:09:00,
2013-04-16 15:14:00,74.1,62.9,30.12,South,182,6.0,13.0,68,0.00,,,0.00,758.00,VWS V14.01,2013-04-16 19:14:00,
2013-04-16 15:19:00,74.3,62.6,30.12,SSW,194,5.0,12.0,67,0.00,,,0.00,663.00,VWS V14.01,2013-04-16 19:19:00,
2013-04-16 15:24:00,74.4,61.9,30.11,SSW,203,6.0,16.0,65,0.00,,,0.00,606.00,VWS V14.01,2013-04-16 19:24:00,
2013-04-16 15:30:00,74.4,62.7,30.11,South,182,4.0,9.0,67,0.00,,,0.00,744.00,VWS V14.01,2013-04-16 19:30:00,
2013-04-16 15:35:00,74.5,62.0,30.11,SSE,165,7.0,13.0,65,0.00,,,0.00,411.00,VWS V14.01,2013-04-16 19:35:00,
2013-04-16 15:40:00,73.9,61.0,30.11,SSE,165,3.0,14.0,64,0.00,,,0.00,487.00,VWS V14.01,2013-04-16 19:40:00,
2013-04-16 15:45:00,73.7,61.2,30.11,South,182,5.0,11.0,65,0.00,,,0.00,568.00,VWS V14.01,2013-04-16 19:45:00,
2013-04-16 15:50:00,73.6,61.5,30.11,SSW,202,6.0,13.0,66,0.00,,,0.00,638.00,VWS V14.01,2013-04-16 19:50:00,
2013-04-16 15:55:00,74.0,61.5,30.10,South,190,10.0,12.0,65,0.00,,,0.00,659.00,VWS V14.01,2013-04-16 19:55:00,
2013-04-16 16:00:00,74.5,61.5,30.10,SSW,198,8.0,13.0,64,0.00,,,0.00,638.00,VWS V14.01,2013-04-16 20:00:00,
2013-04-16 16:05:00,74.5,61.5,30.10,SSW,205,8.0,12.0,64,0.00,,,0.00,631.00,VWS V14.01,2013-04-16 20:05:00,
2013-04-16 16:10:00,74.6,61.6,30.09,South,179,3.0,5.0,64,0.00,,,0.00,629.00,VWS V14.01,2013-04-16 20:10:00,
2013-04-16 16:15:00,74.8,61.8,30.09,South,184,6.0,6.0,64,0.00,,,0.00,608.00,VWS V14.01,2013-04-16 20:15:00,
2013-04-16 16:20:00,74.7,61.3,30.09,SW,214,9.0,9.0,63,0.00,,,0.00,587.00,VWS V14.01,2013-04-16 20:20:00,
2013-04-16 16:25:00,74.8,61.4,30.08,SSE,165,9.0,10.0,63,0.00,,,0.00,587.00,VWS V14.01,2013-04-16 20:25:00,
2013-04-16 16:31:00,74.8,61.8,30.08,SSE,163,5.0,10.0,64,0.00,,,0.00,594.00,VWS V14.01,2013-04-16 20:31:00,
2013-04-16 16:36:00,74.9,61.9,30.08,SSW,206,9.0,12.0,64,0.00,,,0.00,541.00,VWS V14.01,2013-04-16 20:36:00,
2013-04-16 16:41:00,74.9,61.9,30.08,South,180,8.0,13.0,64,0.00,,,0.00,524.00,VWS V14.01,2013-04-16 20:41:00,
2013-04-16 16:46:00,74.8,61.4,30.08,SSW,203,11.0,11.0,63,0.00,,,0.00,482.00,VWS V14.01,2013-04-16 20:46:00,
2013-04-16 16:51:00,74.7,61.7,30.08,SSE,156,8.0,10.0,64,0.00,,,0.00,506.00,VWS V14.01,2013-04-16 20:51:00,
2013-04-16 16:56:00,74.8,61.4,30.09,SW,215,4.0,10.0,63,0.00,,,0.00,485.00,VWS V14.01,2013-04-16 20:56:00,
2013-04-16 17:01:00,74.9,62.8,30.08,SSW,196,11.0,13.0,66,0.00,,,0.00,490.00,VWS V14.01,2013-04-16 21:01:00,
2013-04-16 17:07:00,74.9,61.9,30.08,South,188,4.0,13.0,64,0.00,,,0.00,478.00,VWS V14.01,2013-04-16 21:07:00,
2013-04-16 17:12:00,75.0,62.5,30.08,SW,219,9.0,12.0,65,0.00,,,0.00,461.00,VWS V14.01,2013-04-16 21:12:00,
2013-04-16 17:17:00,75.0,62.0,30.08,South,179,10.0,13.0,64,0.00,,,0.00,441.00,VWS V14.01,2013-04-16 21:17:00,
2013-04-16 17:22:00,74.9,62.3,30.08,SSW,212,10.0,16.0,65,0.00,,,0.00,323.00,VWS V14.01,2013-04-16 21:22:00,
2013-04-16 17:27:00,74.8,61.4,30.08,South,175,8.0,13.0,63,0.00,,,0.00,251.00,VWS V14.01,2013-04-16 21:27:00,
2013-04-16 17:32:00,74.4,61.4,30.08,South,186,6.0,11.0,64,0.00,,,0.00,339.00,VWS V14.01,2013-04-16 21:32:00,
2013-04-16 17:37:00,74.3,60.9,30.08,South,177,7.0,14.0,63,0.00,,,0.00,345.00,VWS V14.01,2013-04-16 21:37:00,
2013-04-16 17:42:00,74.1,61.6,30.07,SE,140,12.0,12.0,65,0.00,,,0.00,179.00,VWS V14.01,2013-04-16 21:42:00,
2013-04-16 17:47:00,73.7,61.2,30.07,South,172,4.0,15.0,65,0.00,,,0.00,193.00,VWS V14.01,2013-04-16 21:47:00,
2013-04-16 17:52:00,73.4,60.9,30.07,South,176,4.0,14.0,65,0.00,,,0.00,134.00,VWS V14.01,2013-04-16 21:52:00,
2013-04-16 17:57:00,73.1,60.7,30.06,SSW,198,8.0,15.0,65,0.00,,,0.00,123.00,VWS V14.01,2013-04-16 21:57:00,
2013-04-16 18:02:00,72.8,60.8,30.05,SSE,167,6.0,13.0,66,0.00,,,0.00,109.00,VWS V14.01,2013-04-16 22:02:00,
2013-04-16 18:07:00,72.5,60.5,30.05,SSE,156,7.0,15.0,66,0.00,,,0.00,98.00,VWS V14.01,2013-04-16 22:07:00,
2013-04-16 18:12:00,72.3,60.3,30.05,South,187,13.0,16.0,66,0.00,,,0.00,91.00,VWS V14.01,2013-04-16 22:12:00,
2013-04-16 18:17:00,72.2,60.2,30.05,South,175,7.0,13.0,66,0.00,,,0.00,79.00,VWS V14.01,2013-04-16 22:17:00,
2013-04-16 18:22:00,72.1,60.5,30.05,South,182,3.0,15.0,67,0.00,,,0.00,70.00,VWS V14.01,2013-04-16 22:22:00,
2013-04-16 18:27:00,71.9,59.9,30.05,South,187,2.0,16.0,66,0.00,,,0.00,69.00,VWS V14.01,2013-04-16 22:27:00,
2013-04-16 18:33:00,71.8,59.8,30.05,South,173,9.0,12.0,66,0.00,,,0.00,70.00,VWS V14.01,2013-04-16 22:33:00,
2013-04-16 18:38:00,71.7,60.2,30.05,South,176,4.0,18.0,67,0.00,,,0.00,69.00,VWS V14.01,2013-04-16 22:38:00,
2013-04-16 18:43:00,71.7,60.2,30.05,South,176,11.0,17.0,67,0.00,,,0.00,65.00,VWS V14.01,2013-04-16 22:43:00,
2013-04-16 18:48:00,71.6,60.1,30.05,South,186,14.0,17.0,67,0.00,,,0.00,70.00,VWS V14.01,2013-04-16 22:48:00,
2013-04-16 18:53:00,71.6,60.5,30.05,South,191,5.0,14.0,68,0.00,,,0.00,135.00,VWS V14.01,2013-04-16 22:53:00,
2013-04-16 18:58:00,71.6,60.1,30.05,SSW,192,7.0,11.0,67,0.00,,,0.00,142.00,VWS V14.01,2013-04-16 22:58:00,
2013-04-16 19:03:00,71.6,60.1,30.05,South,182,3.0,12.0,67,0.00,,,0.00,113.00,VWS V14.01,2013-04-16 23:03:00,
2013-04-16 19:08:00,71.6,60.1,30.05,South,182,2.0,13.0,67,0.00,,,0.00,120.00,VWS V14.01,2013-04-16 23:08:00,
2013-04-16 19:13:00,71.4,60.3,30.05,SW,216,13.0,13.0,68,0.00,,,0.00,98.00,VWS V14.01,2013-04-16 23:13:00,
2013-04-16 19:18:00,71.3,60.2,30.05,SSW,200,7.0,12.0,68,0.00,,,0.00,69.00,VWS V14.01,2013-04-16 23:18:00,
2013-04-16 19:23:00,71.1,60.4,30.05,SW,215,9.0,12.0,69,0.00,,,0.00,47.00,VWS V14.01,2013-04-16 23:23:00,
2013-04-16 19:28:00,70.8,60.1,30.05,SSW,194,7.0,11.0,69,0.00,,,0.00,28.00,VWS V14.01,2013-04-16 23:28:00,
2013-04-16 19:33:00,70.6,60.0,30.05,SSW,200,8.0,12.0,69,0.00,,,0.00,16.00,VWS V14.01,2013-04-16 23:33:00,
2013-04-16 19:38:00,70.2,60.0,30.05,SSW,198,2.0,8.0,70,0.00,,,0.00,11.00,VWS V14.01,2013-04-16 23:38:00,
2013-04-16 19:43:00,69.9,59.7,30.06,SSW,200,7.0,9.0,70,0.00,,,0.00,7.00,VWS V14.01,2013-04-16 23:43:00,
2013-04-16 19:48:00,69.7,59.9,30.06,SSW,199,3.0,7.0,71,0.00,,,0.00,0.00,VWS V14.01,2013-04-16 23:48:00,
2013-04-16 19:53:00,69.5,59.7,30.06,South,188,4.0,7.0,71,0.00,,,0.00,0.00,VWS V14.01,2013-04-16 23:53:00,
2013-04-16 19:59:00,69.2,59.4,30.06,South,190,6.0,9.0,71,0.00,,,0.00,0.00,VWS V14.01,2013-04-16 23:59:00,
2013-04-16 20:03:00,69.0,59.6,30.06,SSW,194,6.0,10.0,72,0.00,,,0.00,0.00,VWS V14.01,2013-04-17 00:03:00,
2013-04-16 20:08:00,68.8,59.4,30.06,SSE,165,9.0,11.0,72,0.00,,,0.00,0.00,VWS V14.01,2013-04-17 00:08:00,
2013-04-16 20:14:00,68.7,59.3,30.06,SSW,198,5.0,11.0,72,0.00,,,0.00,0.00,VWS V14.01,2013-04-17 00:14:00,
2013-04-16 20:19:00,68.6,59.6,30.06,South,169,3.0,12.0,73,0.00,,,0.00,0.00,VWS V14.01,2013-04-17 00:19:00,
2013-04-16 20:24:00,68.5,59.5,30.06,South,182,4.0,16.0,73,0.00,,,0.00,0.00,VWS V14.01,2013-04-17 00:24:00,
2013-04-16 20:29:00,68.3,59.3,30.06,South,173,13.0,13.0,73,0.00,,,0.00,0.00,VWS V14.01,2013-04-17 00:29:00,
2013-04-16 20:34:00,68.1,59.5,30.06,South,182,4.0,10.0,74,0.00,,,0.00,0.00,VWS V14.01,2013-04-17 00:34:00,
2013-04-16 20:39:00,68.0,59.4,30.06,South,178,5.0,11.0,74,0.00,,,0.00,0.00,VWS V14.01,2013-04-17 00:39:00,
2013-04-16 20:44:00,67.8,59.2,30.06,South,181,1.0,11.0,74,0.00,,,0.00,0.00,VWS V14.01,2013-04-17 00:44:00,
2013-04-16 20:49:00,67.6,59.0,30.06,South,186,2.0,10.0,74,0.00,,,0.00,0.00,VWS V14.01,2013-04-17 00:49:00,
2013-04-16 20:54:00,67.6,59.4,30.06,South,176,2.0,9.0,75,0.00,,,0.00,0.00,VWS V14.01,2013-04-17 00:54:00,
2013-04-16 20:59:00,67.4,59.2,30.06,SSW,202,6.0,11.0,75,0.00,,,0.00,0.00,VWS V14.01,2013-04-17 00:59:00,
2013-04-16 21:05:00,67.4,59.2,30.07,South,190,5.0,10.0,75,0.00,,,0.00,0.00,VWS V14.01,2013-04-17 01:05:00,
2013-04-16 21:10:00,67.3,59.1,30.07,South,170,4.0,9.0,75,0.00,,,0.00,0.00,VWS V14.01,2013-04-17 01:10:00,
2013-04-16 21:15:00,67.3,59.1,30.07,South,177,2.0,7.0,75,0.00,,,0.00,0.00,VWS V14.01,2013-04-17 01:15:00,
2013-04-16 21:20:00,67.2,59.4,30.07,South,190,4.0,9.0,76,0.00,,,0.00,0.00,VWS V14.01,2013-04-17 01:20:00,
2013-04-16 21:25:00,67.2,59.4,30.08,South,183,7.0,10.0,76,0.00,,,0.00,0.00,VWS V14.01,2013-04-17 01:25:00,
2013-04-16 21:30:00,67.1,59.3,30.08,SSW,207,8.0,10.0,76,0.00,,,0.00,0.00,VWS V14.01,2013-04-17 01:30:00,
2013-04-16 21:35:00,67.1,59.3,30.08,SSW,203,7.0,11.0,76,0.00,,,0.00,0.00,VWS V14.01,2013-04-17 01:35:00,
2013-04-16 21:40:00,67.1,59.3,30.08,SSW,205,10.0,10.0,76,0.00,,,0.00,0.00,VWS V14.01,2013-04-17 01:40:00,
2013-04-16 21:45:00,67.1,59.3,30.08,SSW,212,5.0,10.0,76,0.00,,,0.00,0.00,VWS V14.01,2013-04-17 01:45:00,
2013-04-16 21:50:00,67.0,59.2,30.08,South,180,2.0,9.0,76,0.00,,,0.00,0.00,VWS V14.01,2013-04-17 01:50:00,
2013-04-16 21:55:00,66.9,59.1,30.08,SSW,197,4.0,6.0,76,0.00,,,0.00,0.00,VWS V14.01,2013-04-17 01:55:00,
2013-04-16 22:00:00,66.8,59.4,30.08,South,191,0.0,8.0,77,0.00,,,0.00,0.00,VWS V14.01,2013-04-17 02:00:00,
2013-04-16 22:05:00,66.8,59.4,30.08,South,176,3.0,7.0,77,0.00,,,0.00,0.00,VWS V14.01,2013-04-17 02:05:00,
2013-04-16 22:10:00,66.7,59.3,30.08,South,171,2.0,6.0,77,0.00,,,0.00,0.00,VWS V14.01,2013-04-17 02:10:00,
2013-04-16 22:15:00,66.6,59.2,30.08,South,187,3.0,6.0,77,0.00,,,0.00,0.00,VWS V14.01,2013-04-17 02:15:00,
2013-04-16 22:20:00,66.6,59.2,30.08,SSW,205,6.0,7.0,77,0.00,,,0.00,0.00,VWS V14.01,2013-04-17 02:20:00,
2013-04-16 22:25:00,66.6,59.2,30.07,South,184,2.0,2.0,77,0.00,,,0.00,0.00,VWS V14.01,2013-04-17 02:25:00,
2013-04-16 22:30:00,66.5,59.1,30.07,South,183,0.0,1.0,77,0.00,,,0.00,0.00,VWS V14.01,2013-04-17 02:30:00,
2013-04-16 22:35:00,66.4,59.0,30.08,South,182,1.0,2.0,77,0.00,,,0.00,0.00,VWS V14.01,2013-04-17 02:35:00,
2013-04-16 22:40:00,66.3,59.2,30.08,South,190,0.0,0.0,78,0.00,,,0.00,0.00,VWS V14.01,2013-04-17 02:40:00,
2013-04-16 22:45:00,66.2,59.2,30.08,South,182,7.0,7.0,78,0.00,,,0.00,0.00,VWS V14.01,2013-04-17 02:45:00,
2013-04-16 22:50:00,66.1,59.0,30.08,SSW,199,0.0,0.0,78,0.00,,,0.00,0.00,VWS V14.01,2013-04-17 02:50:00,
2013-04-16 22:55:00,66.1,59.0,30.08,SSW,196,3.0,3.0,78,0.00,,,0.00,0.00,VWS V14.01,2013-04-17 02:55:00,
2013-04-16 23:00:00,66.0,59.3,30.08,SSW,196,2.0,2.0,79,0.00,,,0.00,0.00,VWS V14.01,2013-04-17 03:00:00,
2013-04-16 23:05:00,65.9,59.2,30.08,SSW,196,0.0,0.0,79,0.00,,,0.00,0.00,VWS V14.01,2013-04-17 03:05:00,
2013-04-16 23:10:00,65.9,59.2,30.08,SSW,196,0.0,0.0,79,0.00,,,0.00,0.00,VWS V14.01,2013-04-17 03:10:00,
2013-04-16 23:15:00,65.8,59.1,30.08,SSW,194,0.0,1.0,79,0.00,,,0.00,0.00,VWS V14.01,2013-04-17 03:15:00,
2013-04-16 23:21:00,65.7,59.0,30.07,SSW,194,0.0,1.0,79,0.00,,,0.00,0.00,VWS V14.01,2013-04-17 03:21:00,
2013-04-16 23:26:00,65.6,58.9,30.07,SSW,194,0.0,1.0,79,0.00,,,0.00,0.00,VWS V14.01,2013-04-17 03:26:00,
2013-04-16 23:31:00,65.4,59.1,30.08,South,187,0.0,0.0,80,0.00,,,0.00,0.00,VWS V14.01,2013-04-17 03:31:00,
2013-04-16 23:36:00,65.4,59.1,30.10,WNW,300,5.0,6.0,80,0.00,,,0.00,0.00,VWS V14.01,2013-04-17 03:36:00,
2013-04-16 23:41:00,65.4,59.1,30.11,NNW,332,4.0,7.0,80,0.00,,,0.00,0.00,VWS V14.01,2013-04-17 03:41:00,
2013-04-16 23:46:00,65.6,59.3,30.11,WNW,299,3.0,3.0,80,0.00,,,0.00,0.00,VWS V14.01,2013-04-17 03:46:00,
2013-04-16 23:51:00,65.7,59.4,30.11,NNW,332,0.0,1.0,80,0.00,,,0.00,0.00,VWS V14.01,2013-04-17 03:51:00,
2013-04-16 23:56:00,65.8,59.5,30.13,NW,323,1.0,5.0,80,0.00,,,0.00,0.00,VWS V14.01,2013-04-17 03:56:00,